Date String (YYYY-MM-DD hh:mm:ss) UTC,Instrument flags,absolute air pressure of the measurement (hPa),sample flow rate (lpm),inlet stack bypass flow (lpm),air temperature of the measurement (°C),ambient temperature measured by the external sensor (°C),aerosol sample conditioner tube jacket temperature (°C),OPC LED temperature (°C),internal box temperature (°C),relative humidity of the measurement (%),span deviation,mass concentration of particles derived from Lorenz-Mie calculation of OPC scattering (μg/m³),mass concentration of particles derived from Lorenz-Mie calculation of OPC scattering (μg/m³),mass concentration of particles derived from Lorenz-Mie calculation of OPC scattering (μg/m³)
DateTimeUTC,F1_M11,P_M11,Q1_M11,Q2_M11,T1_M11,T2_M11,T3_M11,T4_M11,T5_M11,U1_M11,ZSPAN_M11,X0_M11,X2_M11,X1_M11
2023-06-03 06:00:00,SystemResetWarning,0830.1,5.01,000.00,029.8,028.2,000.0,038.2,031.4,27.3,0000.0,0010.00,0004.12,0003.51
2023-06-03 06:01:00,SystemResetWarning,0830.1,5.00,000.00,029.8,028.2,000.0,038.2,031.4,27.3,0000.0,0009.83,0004.03,0003.44
2023-06-03 06:02:00,SystemResetWarning,0830.1,4.99,000.00,029.8,028.2,000.0,038.2,031.4,27.3,0000.0,0009.69,0003.95,0003.37
2023-06-03 06:03:00,SystemResetWarning,0830.1,4.98,000.00,029.8,028.3,000.0,038.2,031.4,27.2,0000.0,0009.30,0003.88,0003.31
2023-06-03 06:04:00,SystemResetWarning,0830.1,5.00,000.00,029.8,028.3,000.0,038.2,031.5,27.2,0000.0,0008.93,0003.80,0003.25
2023-06-03 06:05:00,SystemResetWarning,0830.1,5.00,000.00,029.8,028.3,000.0,038.2,031.5,27.2,0000.0,0008.32,0003.74,0003.21
2023-06-03 06:06:00,SystemResetWarning,0830.1,5.01,000.00,029.9,028.3,000.0,038.2,031.5,27.3,0000.0,0008.21,0003.71,0003.18
2023-06-03 06:07:00,SystemResetWarning,0830.0,5.00,000.00,029.9,028.3,000.0,038.2,031.5,27.3,0000.0,0007.78,0003.73,0003.18
2023-06-03 06:08:00,SystemResetWarning,0830.0,4.99,000.00,029.9,028.3,000.0,038.2,031.5,27.3,0000.0,0007.89,0003.78,0003.21
2023-06-03 06:09:00,SystemResetWarning,0830.0,5.00,000.00,029.9,028.4,000.0,038.2,031.5,27.3,0000.0,0007.82,0003.80,0003.23
2023-06-03 06:10:00,SystemResetWarning,0830.0,4.99,000.00,029.9,028.4,000.0,038.2,031.5,27.3,0000.0,0007.52,0003.80,0003.23
2023-06-03 06:11:00,SystemResetWarning,0830.1,5.01,000.00,029.9,028.4,000.0,038.2,031.5,27.3,0000.0,0007.49,0003.84,0003.24
2023-06-03 06:12:00,SystemResetWarning,0830.1,5.01,000.00,029.9,028.4,000.0,038.2,031.5,27.3,0000.0,0007.66,0003.90,0003.27
2023-06-03 06:13:00,SystemResetWarning,0830.0,5.00,000.00,029.9,028.4,000.0,038.3,031.5,27.3,0000.0,0007.75,0003.96,0003.31
2023-06-03 06:14:00,SystemResetWarning,0830.1,5.00,000.00,029.9,028.4,000.0,038.3,031.6,27.3,0000.0,0007.90,0004.02,0003.35
2023-06-03 06:15:00,SystemResetWarning,0830.1,4.99,000.00,029.9,028.4,000.0,038.3,031.6,27.3,0000.0,0008.02,0004.07,0003.38
2023-06-03 06:16:00,SystemResetWarning,0830.1,4.99,000.00,029.9,028.4,000.0,038.3,031.6,27.2,0000.0,0008.05,0004.11,0003.42
2023-06-03 06:17:00,SystemResetWarning,0830.0,4.99,000.00,030.0,028.4,000.0,038.3,031.6,27.2,0000.0,0008.05,0004.12,0003.44
2023-06-03 06:18:00,SystemResetWarning,0830.0,5.00,000.00,030.0,028.4,000.0,038.3,031.6,27.1,0000.0,0007.98,0004.11,0003.44
2023-06-03 06:19:00,SystemResetWarning,0830.0,5.00,000.00,030.0,028.4,000.0,038.3,031.6,27.1,0000.0,0007.96,0004.13,0003.44
2023-06-03 06:20:00,SystemResetWarning,0830.0,5.00,000.00,030.0,028.4,000.0,038.3,031.6,27.1,0000.0,0008.00,0004.15,0003.45
2023-06-03 06:21:00,SystemResetWarning,0830.0,5.01,000.00,030.0,028.4,000.0,038.3,031.6,27.1,0000.0,0007.69,0004.18,0003.46
2023-06-03 06:22:00,SystemResetWarning,0830.1,5.00,000.00,030.0,028.4,000.0,038.3,031.6,27.1,0000.0,0007.78,0004.23,0003.49
2023-06-03 06:23:00,SystemResetWarning,0830.0,4.99,000.00,030.0,028.4,000.0,038.3,031.6,27.1,0000.0,0007.90,0004.25,0003.51
2023-06-03 06:24:00,SystemResetWarning,0830.0,4.99,000.00,030.0,028.4,000.0,038.3,031.6,27.2,0000.0,0008.04,0004.28,0003.53
2023-06-03 06:25:00,SystemResetWarning,0830.0,5.00,000.00,030.0,028.5,000.0,038.3,031.6,27.1,0000.0,0008.03,0004.33,0003.56
2023-06-03 06:26:00,SystemResetWarning,0830.0,5.00,000.00,030.0,028.5,000.0,038.3,031.6,27.0,0000.0,0008.19,0004.36,0003.61
2023-06-03 06:27:00,SystemResetWarning,0830.0,5.01,000.00,030.0,028.5,000.0,038.4,031.6,26.9,0000.0,0008.46,0004.42,0003.65
2023-06-03 06:28:00,SystemResetWarning,0830.0,5.00,000.00,030.0,028.5,000.0,038.4,031.7,26.9,0000.0,0008.62,0004.51,0003.71
2023-06-03 06:29:00,SystemResetWarning,0830.1,5.00,000.00,030.0,028.5,000.0,038.4,031.7,26.9,0000.0,0008.79,0004.59,0003.76
2023-06-03 06:30:00,SystemResetWarning,0830.0,5.00,000.00,030.0,028.5,000.0,038.4,031.7,27.0,0000.0,0008.96,0004.61,0003.81
2023-06-03 06:31:00,SystemResetWarning,0830.0,5.00,000.00,030.0,028.5,000.0,038.4,031.7,27.1,0000.0,0009.03,0004.67,0003.87
2023-06-03 06:32:00,SystemResetWarning,0830.0,5.00,000.00,030.0,028.5,000.0,038.4,031.7,27.1,0000.0,0009.05,0004.72,0003.94
2023-06-03 06:33:00,SystemResetWarning,0830.1,5.00,000.00,030.0,028.5,000.0,038.4,031.7,27.1,0000.0,0008.99,0004.76,0004.00
2023-06-03 06:34:00,SystemResetWarning,0830.1,5.00,000.00,030.1,028.5,000.0,038.4,031.7,27.2,0000.0,0008.89,0004.78,0004.05
2023-06-03 06:35:00,SystemResetWarning,0830.1,5.00,000.00,030.1,028.5,000.0,038.4,031.7,27.4,0000.0,0008.88,0004.81,0004.09
2023-06-03 06:36:00,SystemResetWarning,0830.1,4.99,000.00,030.1,028.5,000.0,038.4,031.7,27.3,0000.0,0008.82,0004.78,0004.11
2023-06-03 06:37:00,SystemResetWarning,0830.0,5.00,000.00,030.1,028.6,000.0,038.4,031.7,27.2,0000.0,0009.10,0004.80,0004.14
2023-06-03 06:38:00,SystemResetWarning,0830.1,5.00,000.00,030.1,028.6,000.0,038.4,031.7,27.0,0000.0,0008.98,0004.80,0004.15
2023-06-03 06:39:00,SystemResetWarning,0830.1,4.99,000.00,030.1,028.6,000.0,038.4,031.7,26.8,0000.0,0008.95,0004.81,0004.15
2023-06-03 06:40:00,SystemResetWarning,0830.1,5.00,000.00,030.1,028.6,000.0,038.4,031.8,26.6,0000.0,0008.96,0004.83,0004.16
2023-06-03 06:41:00,SystemResetWarning,0830.1,5.00,000.00,030.1,028.6,000.0,038.5,031.8,26.7,0000.0,0008.74,0004.83,0004.17
2023-06-03 06:42:00,SystemResetWarning,0830.1,5.00,000.00,030.1,028.6,000.0,038.5,031.8,26.3,0000.0,0008.99,0004.83,0004.17
2023-06-03 06:43:00,SystemResetWarning,0830.1,5.00,000.00,030.1,028.6,000.0,038.5,031.7,25.9,0000.0,0009.14,0004.83,0004.16
2023-06-03 06:44:00,SystemResetWarning,0830.1,5.00,000.00,030.1,028.6,000.0,038.5,031.8,25.7,0000.0,0009.16,0004.81,0004.13
2023-06-03 06:45:00,SystemResetWarning,0830.1,5.00,000.00,030.2,028.7,000.0,038.5,031.8,25.7,0000.0,0009.08,0004.79,0004.11
2023-06-03 06:46:00,SystemResetWarning,0830.1,5.00,000.00,030.2,028.7,000.0,038.5,031.8,26.0,0000.0,0008.97,0004.78,0004.10
2023-06-03 06:47:00,SystemResetWarning,0830.1,5.00,000.00,030.2,028.7,000.0,038.5,031.8,25.9,0000.0,0009.00,0004.77,0004.08
2023-06-03 06:48:00,SystemResetWarning,0830.2,4.99,000.00,030.2,028.7,000.0,038.5,031.8,25.6,0000.0,0008.56,0004.69,0004.02
2023-06-03 06:49:00,SystemResetWarning,0830.1,5.00,000.00,030.2,028.7,000.0,038.5,031.8,25.6,0000.0,0008.34,0004.62,0003.96
2023-06-03 06:50:00,SystemResetWarning,0830.1,5.00,000.00,030.2,028.7,000.0,038.5,031.8,25.8,0000.0,0008.30,0004.54,0003.91
2023-06-03 06:51:00,SystemResetWarning,0830.2,5.00,000.00,030.2,028.7,000.0,038.5,031.8,25.6,0000.0,0008.25,0004.47,0003.85
2023-06-03 06:52:00,SystemResetWarning,0830.2,5.01,000.00,030.2,028.7,000.0,038.6,031.8,25.7,0000.0,0008.21,0004.41,0003.77
2023-06-03 06:53:00,SystemResetWarning,0830.3,5.00,000.00,030.2,028.7,000.0,038.6,031.9,25.9,0000.0,0007.92,0004.34,0003.71
2023-06-03 06:54:00,SystemResetWarning,0830.2,5.00,000.00,030.2,028.7,000.0,038.6,031.9,26.2,0000.0,0007.65,0004.27,0003.67
2023-06-03 06:55:00,SystemResetWarning,0830.3,5.00,000.00,030.2,028.7,000.0,038.6,031.9,26.6,0000.0,0007.50,0004.22,0003.66
2023-06-03 06:56:00,SystemResetWarning,0830.2,4.99,000.00,030.3,028.7,000.0,038.6,031.9,26.5,0000.0,0007.47,0004.18,0003.64
2023-06-03 06:57:00,SystemResetWarning,0830.2,5.00,000.00,030.3,028.7,000.0,038.6,031.9,26.5,0000.0,0007.34,0004.12,0003.62
2023-06-03 06:58:00,SystemResetWarning,0830.3,4.99,000.00,030.3,028.8,000.0,038.6,031.9,26.6,0000.0,0007.23,0004.08,0003.60
2023-06-03 06:59:00,SystemResetWarning,0830.2,5.00,000.00,030.3,028.8,000.0,038.6,031.9,27.2,0000.0,0007.67,0004.12,0003.63
